When you browse on this site, cookies collect data to enhance your experience and personalize the content and advertising you see.
Visit our Privacy Policy to learn more. By continuing to use the site, you agree to this use of cookies and data.
  • In Belgium
  • List of Countries
  • For 7 days
  • Water Temperature
  • Satellite Maps
  • Weather Map
  • Weather Widgets
  • user-avatar
    Login

    Hourly Weather Diest

    Today, 25 May, Saturday

    Time Temperature Precipitation Wind Pressure Humidity
    00:00 +9°C° 0 mm 1 mps 759 mmHg 80%
    01:00 +9°C° 0 mm 1 mps 759 mmHg 82%
    02:00 +9°C° 0 mm 1 mps 759 mmHg 85%
    03:00 +7°C° 0 mm 0 mps 759 mmHg 88%
    04:00 +8°C° 0 mm 0 mps 759 mmHg 84%
    05:00 +10°C° 0 mm 0 mps 759 mmHg 80%
    06:00 +11°C° 0 mm 0 mps 759 mmHg 75%
    07:00 +12°C° 0 mm 0 mps 759 mmHg 71%
    08:00 +15°C° 0 mm 1 mps 759 mmHg 67%
    09:00 +16°C° 0 mm 1 mps 760 mmHg 64%
    10:00 +18°C° 0 mm 1 mps 759 mmHg 62%
    11:00 +18°C° 0 mm 1 mps 759 mmHg 61%
    12:00 +19°C° 0 mm 1 mps 759 mmHg 60%
    13:00 +20°C° 0 mm 1 mps 759 mmHg 58%
    14:00 +21°C° 0 mm 1 mps 759 mmHg 56%
    15:00 +21°C° 0 mm 1 mps 759 mmHg 54%
    16:00 +21°C° 0.2 mm 1 mps 758 mmHg 60%
    17:00 +20°C° 0.2 mm 1 mps 758 mmHg 65%
    18:00 +20°C° 0.2 mm 1 mps 758 mmHg 71%
    19:00 +18°C° 0.1 mm 1 mps 759 mmHg 76%
    20:00 +15°C° 0.1 mm 1 mps 759 mmHg 81%
    21:00 +13°C° 0.1 mm 2 mps 759 mmHg 86%
    22:00 +13°C° 0 mm 2 mps 759 mmHg 88%
    23:00 +12°C° 0 mm 2 mps 759 mmHg 89%

    Tomorrow, 26 May, Sunday

    Time Temperature Precipitation Wind Pressure Humidity
    00:00 +10°C° 0 mm 2 mps 759 mmHg 91%
    01:00 +10°C° 0 mm 2 mps 758 mmHg 91%
    02:00 +10°C° 0 mm 2 mps 758 mmHg 90%
    03:00 +10°C° 0 mm 2 mps 758 mmHg 90%
    04:00 +11°C° 0 mm 3 mps 758 mmHg 89%
    05:00 +12°C° 0 mm 3 mps 758 mmHg 89%
    06:00 +13°C° 0 mm 4 mps 758 mmHg 89%
    07:00 +15°C° 0 mm 4 mps 758 mmHg 82%
    08:00 +18°C° 0 mm 4 mps 758 mmHg 76%
    09:00 +20°C° 0 mm 4 mps 757 mmHg 70%
    10:00 +20°C° 0.1 mm 5 mps 757 mmHg 72%
    11:00 +20°C° 0.1 mm 5 mps 757 mmHg 73%
    12:00 +20°C° 0.1 mm 5 mps 757 mmHg 75%
    13:00 +20°C° 0.2 mm 5 mps 756 mmHg 77%
    14:00 +19°C° 0.2 mm 4 mps 756 mmHg 80%
    15:00 +19°C° 0.2 mm 4 mps 756 mmHg 82%
    16:00 +19°C° 0.1 mm 4 mps 756 mmHg 82%
    17:00 +19°C° 0.1 mm 4 mps 755 mmHg 82%
    18:00 +19°C° 0.1 mm 4 mps 755 mmHg 82%
    19:00 +18°C° 0 mm 4 mps 755 mmHg 84%
    20:00 +17°C° 0 mm 4 mps 755 mmHg 87%
    21:00 +15°C° 0 mm 4 mps 755 mmHg 89%
    22:00 +15°C° 0.1 mm 4 mps 755 mmHg 90%
    23:00 +15°C° 0.1 mm 4 mps 755 mmHg 91%

    Day after tomorrow, 27 May, Monday

    Time Temperature Precipitation Wind Pressure Humidity
    00:00 +15°C° 0.1 mm 4 mps 755 mmHg 92%
    01:00 +14°C° 0.4 mm 4 mps 754 mmHg 92%
    02:00 +14°C° 0.4 mm 4 mps 754 mmHg 92%
    03:00 +14°C° 0.4 mm 3 mps 754 mmHg 93%
    04:00 +14°C° 0 mm 3 mps 754 mmHg 90%
    05:00 +13°C° 0 mm 3 mps 754 mmHg 87%
    06:00 +13°C° 0 mm 3 mps 754 mmHg 84%
    07:00 +14°C° 0 mm 4 mps 755 mmHg 75%
    08:00 +15°C° 0 mm 4 mps 755 mmHg 67%
    09:00 +17°C° 0 mm 4 mps 755 mmHg 59%
    10:00 +18°C° 0 mm 4 mps 755 mmHg 58%
    11:00 +17°C° 0 mm 5 mps 755 mmHg 57%
    12:00 +19°C° 0 mm 5 mps 755 mmHg 56%
    13:00 +18°C° 0.1 mm 4 mps 755 mmHg 60%
    14:00 +17°C° 0.1 mm 3 mps 754 mmHg 65%
    15:00 +17°C° 0.1 mm 3 mps 754 mmHg 69%
    16:00 +16°C° 0.1 mm 3 mps 754 mmHg 70%
    17:00 +16°C° 0.1 mm 3 mps 754 mmHg 71%
    18:00 +14°C° 0.1 mm 3 mps 754 mmHg 72%
    19:00 +13°C° 0 mm 3 mps 754 mmHg 74%
    20:00 +12°C° 0 mm 3 mps 754 mmHg 76%
    21:00 +13°C° 0 mm 2 mps 754 mmHg 78%
    22:00 +11°C° 0.1 mm 3 mps 754 mmHg 81%
    23:00 +11°C° 0.1 mm 3 mps 754 mmHg 83%

    28 May, Tuesday

    Time Temperature Precipitation Wind Pressure Humidity
    00:00 +11°C° 0.1 mm 3 mps 754 mmHg 85%
    01:00 +11°C° 0 mm 3 mps 754 mmHg 88%
    02:00 +10°C° 0 mm 3 mps 754 mmHg 90%
    03:00 +10°C° 0 mm 3 mps 754 mmHg 92%
    04:00 +10°C° 0 mm 3 mps 754 mmHg 87%
    05:00 +10°C° 0 mm 3 mps 755 mmHg 83%
    06:00 +10°C° 0 mm 4 mps 755 mmHg 78%
    07:00 +11°C° 0.1 mm 4 mps 755 mmHg 74%
    08:00 +11°C° 0.1 mm 4 mps 756 mmHg 70%
    09:00 +12°C° 0.1 mm 4 mps 756 mmHg 66%
    10:00 +12°C° 0.1 mm 4 mps 757 mmHg 61%
    11:00 +13°C° 0.1 mm 4 mps 757 mmHg 57%
    12:00 +14°C° 0.1 mm 5 mps 757 mmHg 52%
    13:00 +14°C° 0.1 mm 5 mps 758 mmHg 52%
    14:00 +14°C° 0.1 mm 5 mps 758 mmHg 51%
    15:00 +14°C° 0.1 mm 5 mps 758 mmHg 51%
    16:00 +13°C° 0 mm 5 mps 758 mmHg 53%
    17:00 +13°C° 0 mm 4 mps 759 mmHg 56%
    18:00 +12°C° 0 mm 4 mps 759 mmHg 58%
    19:00 +11°C° 0 mm 3 mps 760 mmHg 63%
    20:00 +9°C° 0 mm 3 mps 760 mmHg 67%
    21:00 +7°C° 0 mm 2 mps 761 mmHg 72%
    22:00 +6°C° 0 mm 2 mps 761 mmHg 75%
    23:00 +6°C° 0 mm 2 mps 762 mmHg 77%

    29 May, Wednesday

    Time Temperature Precipitation Wind Pressure Humidity
    00:00 +6°C° 0 mm 1 mps 762 mmHg 80%
    01:00 +6°C° 0 mm 1 mps 762 mmHg 82%
    02:00 +5°C° 0 mm 1 mps 762 mmHg 85%
    03:00 +4°C° 0 mm 0 mps 762 mmHg 87%
    04:00 +6°C° 0 mm 1 mps 762 mmHg 82%
    05:00 +8°C° 0 mm 1 mps 763 mmHg 77%
    06:00 +10°C° 0 mm 1 mps 763 mmHg 72%
    07:00 +11°C° 0 mm 1 mps 763 mmHg 66%
    08:00 +13°C° 0 mm 1 mps 763 mmHg 60%
    09:00 +15°C° 0 mm 1 mps 763 mmHg 55%
    10:00 +15°C° 0 mm 2 mps 763 mmHg 54%
    11:00 +16°C° 0 mm 2 mps 763 mmHg 53%
    12:00 +17°C° 0 mm 2 mps 763 mmHg 53%
    13:00 +17°C° 0.1 mm 3 mps 763 mmHg 55%
    14:00 +17°C° 0.1 mm 3 mps 763 mmHg 57%
    15:00 +17°C° 0.1 mm 3 mps 763 mmHg 60%
    16:00 +17°C° 0.1 mm 3 mps 763 mmHg 60%
    17:00 +16°C° 0.1 mm 3 mps 763 mmHg 61%
    18:00 +16°C° 0.1 mm 2 mps 763 mmHg 62%
    19:00 +13°C° 0 mm 2 mps 763 mmHg 65%
    20:00 +11°C° 0 mm 1 mps 764 mmHg 68%
    21:00 +9°C° 0 mm 1 mps 764 mmHg 71%
    22:00 +9°C° 0 mm 1 mps 764 mmHg 71%
    23:00 +8°C° 0 mm 2 mps 764 mmHg 71%

    30 May, Thursday

    Time Temperature Precipitation Wind Pressure Humidity
    00:00 +7°C° 0 mm 2 mps 763 mmHg 71%
    01:00 +7°C° 0 mm 3 mps 763 mmHg 74%
    02:00 +7°C° 0 mm 3 mps 763 mmHg 76%
    03:00 +6°C° 0 mm 4 mps 762 mmHg 79%
    04:00 +7°C° 0 mm 5 mps 762 mmHg 77%
    05:00 +8°C° 0 mm 5 mps 762 mmHg 75%
    06:00 +9°C° 0 mm 6 mps 761 mmHg 73%
    07:00 +11°C° 0 mm 7 mps 761 mmHg 72%
    08:00 +12°C° 0 mm 7 mps 760 mmHg 71%
    09:00 +13°C° 0 mm 8 mps 760 mmHg 71%
    10:00 +14°C° 0.2 mm 7 mps 759 mmHg 75%
    11:00 +14°C° 0.2 mm 7 mps 759 mmHg 79%
    12:00 +14°C° 0.2 mm 7 mps 759 mmHg 83%
    13:00 +14°C° 0.3 mm 7 mps 758 mmHg 86%
    14:00 +12°C° 0.3 mm 7 mps 758 mmHg 89%
    15:00 +12°C° 0.3 mm 7 mps 757 mmHg 91%
    16:00 +12°C° 0.3 mm 7 mps 757 mmHg 91%
    17:00 +12°C° 0.3 mm 7 mps 756 mmHg 92%
    18:00 +12°C° 0.3 mm 7 mps 756 mmHg 92%
    19:00 +12°C° 0.1 mm 7 mps 755 mmHg 92%
    20:00 +13°C° 0.1 mm 6 mps 755 mmHg 93%
    21:00 +13°C° 0.1 mm 6 mps 755 mmHg 93%
    22:00 +11°C° 0.3 mm 7 mps 755 mmHg 93%
    23:00 +10°C° 0.3 mm 7 mps 755 mmHg 92%
    Show more